Fairfield, PA

5:33 PM EST on December 07, 2016 (GMT -0500)
Fountain Dale

Weather History for KRYT - November, 2012

Change the Weather History Date:

Friday, November 2, 2012

  Actual Average (KHGR) Record (KHGR)
Temperature  
Mean Temperature 44 °F 50 °F  
Max Temperature 50 °F 60 °F 75 °F (2001)
Min Temperature 39 °F 40 °F 29 °F (2010)
Degree Days  
Heating Degree Days 22 15  
Month to date heating degree days 30  
Since 1 July heating degree days 432  
Cooling Degree Days 0 0  
Month to date cooling degree days 0  
Year to date cooling degree days 969  
Moisture  
Dew Point 30 °F    
Average Humidity 57    
Maximum Humidity 73    
Minimum Humidity 46    
Precipitation  
Precipitation 0.00 in 0.10 in 0.43 in (1999)
Month to date precipitation 0.20  
Year to date precipitation 33.38  
Sea Level Pressure  
Sea Level Pressure 29.77 in    
Wind  
Wind Speed 6 mph (West)    
Max Wind Speed 14 mph    
Max Gust Speed 28 mph    
Visibility 10 miles    
Events      
T = Trace of Precipitation, MM = Missing Value Source: NWS Daily Summary

Daily Weather History Graph

Daily Weather History Graph

Search for Another Location

Airport or City:

Trip Planner

Search our weather history database for the weather conditions in past years. The results will help you decide how hot, cold, wet, or windy it might be!

Date:

Astronomy

Nov. 02, 2012 Rise Set
Actual Time 7:39 AM EDT 6:06 PM EDT
Civil Twilight 7:11 AM EDT 6:34 PM EDT
Nautical Twilight 6:39 AM EDT 7:06 PM EDT
Astronomical Twilight 6:08 AM EDT 7:37 PM EDT
Moon 8:51 PM EDT (11/2) 10:58 AM EDT (11/2)
Length of Visible Light 11h 22m
Length of Day
10h 26m
Waning Gibbous, 87% of the Moon is Illuminated
Nov 2
Waning Gibbous
Nov 6
Last Quarter
Nov 13
New
Nov 20
First Quarter
Nov 28
Full

Hourly Weather History & Observations

Time (EDT) Temp. Windchill Dew Point Humidity Pressure Visibility Wind Dir Wind Speed Gust Speed Precip Events Conditions
12:53 AM 45.0 °F 40.6 °F 28.0 °F 52% 29.72 in 10.0 mi WSW 8.1 mph - N/A   Clear
1:53 AM 45.0 °F 41.2 °F 28.9 °F 53% 29.72 in 10.0 mi Variable 6.9 mph - N/A   Overcast
2:53 AM 43.0 °F - 30.0 °F 60% 29.73 in 10.0 mi Calm Calm - N/A   Partly Cloudy
3:53 AM 39.0 °F - 30.9 °F 73% 29.72 in 10.0 mi Calm Calm - N/A   Clear
4:53 AM 41.0 °F - 30.9 °F 67% 29.71 in 10.0 mi Calm Calm - N/A   Clear
5:53 AM 41.0 °F - 32.0 °F 70% 29.71 in 10.0 mi Calm Calm - N/A   Mostly Cloudy
6:53 AM 43.0 °F 41.3 °F 32.0 °F 65% 29.72 in 10.0 mi Variable 3.5 mph - N/A   Overcast
7:53 AM 44.1 °F 40.8 °F 30.9 °F 60% 29.73 in 10.0 mi WSW 5.8 mph - N/A   Overcast
8:53 AM 44.1 °F 39.0 °F 30.9 °F 60% 29.73 in 10.0 mi SW 9.2 mph - N/A   Overcast
9:53 AM 44.1 °F 41.5 °F 33.1 °F 65% 29.75 in 10.0 mi Variable 4.6 mph - 0.00 in   Overcast
10:13 AM 44.6 °F 42.2 °F 33.8 °F 66% 29.74 in 10.0 mi Variable 4.6 mph - N/A   Overcast
10:53 AM 46.0 °F 41.0 °F 33.1 °F 61% 29.75 in 10.0 mi WNW 10.4 mph - N/A   Mostly Cloudy
11:05 AM 46.4 °F 41.9 °F 32.0 °F 57% 29.74 in 10.0 mi WNW 9.2 mph 17.3 mph N/A   Overcast
11:53 AM 48.9 °F - 30.0 °F 48% 29.76 in 10.0 mi NW 9.2 mph 27.6 mph N/A   Partly Cloudy
12:53 PM 48.9 °F - 28.9 °F 46% 29.75 in 10.0 mi West 9.2 mph 21.9 mph N/A   Mostly Cloudy
1:53 PM 48.9 °F - 30.0 °F 48% 29.75 in 10.0 mi WNW 13.8 mph 21.9 mph N/A   Scattered Clouds
2:53 PM 48.0 °F - 28.9 °F 48% 29.76 in 10.0 mi WNW 9.2 mph - N/A   Overcast
3:53 PM 48.0 °F - 28.0 °F 46% 29.78 in 10.0 mi NW 11.5 mph 19.6 mph N/A   Overcast
5:53 PM 46.0 °F 43.9 °F 30.0 °F 54% 29.82 in 10.0 mi Variable 4.6 mph - N/A   Overcast
7:53 PM 44.1 °F 41.5 °F 30.0 °F 58% 29.87 in 10.0 mi Variable 4.6 mph - N/A   Mostly Cloudy
8:53 PM 44.1 °F - 28.9 °F 55% 29.88 in 10.0 mi Calm Calm - N/A   Overcast
9:53 PM 44.1 °F 40.1 °F 28.9 °F 55% 29.89 in 10.0 mi Variable 6.9 mph 17.3 mph N/A   Overcast
10:53 PM 44.1 °F 39.5 °F 28.0 °F 53% 29.90 in 10.0 mi West 8.1 mph 17.3 mph N/A   Overcast
11:53 PM 44.1 °F 40.8 °F 28.0 °F 53% 29.89 in 10.0 mi Variable 5.8 mph - N/A   Overcast